Actual water levels and discharges of Elbe river

Guaranteed water level and forecast    Ústí nad Labem-Střekov

Guaranteed water level
185 cm
on 11.08.2022 more information
Forecast
180 cm
on 12.08.2022 07:00
Tendency
Slowly decreasing
on 12.08.2022 metodika tendence
Forecast
184 cm
on 13.08.2022 08:00
(Source data ČHMÚ a Povodí Labe)

Děčín

Date and time (UTC) H (cm) Q (m³/s)
11. 8. 2022 09:50 154 173
11. 8. 2022 09:00 154 173
11. 8. 2022 08:00 153 171
11. 8. 2022 07:00 153 171
11. 8. 2022 06:00 153 171
11. 8. 2022 05:00 154 173
11. 8. 2022 04:00 155 174
11. 8. 2022 03:00 156 176
11. 8. 2022 02:00 157 178
11. 8. 2022 01:00 158 179
11. 8. 2022 00:00 160 183
10. 8. 2022 23:00 162 186
10. 8. 2022 22:00 163 187
10. 8. 2022 21:00 162 186

H - water level, Q - discharge

Ústí nad Labem

Date and time (UTC) H (cm) Q (m³/s)
11. 8. 2022 09:50 193 178
11. 8. 2022 09:00 202 195
11. 8. 2022 08:00 198 187
11. 8. 2022 07:00 196 183
11. 8. 2022 06:00 186 165
11. 8. 2022 05:00 187 167
11. 8. 2022 04:00 187 167
11. 8. 2022 03:00 186 165
11. 8. 2022 02:00 185 163
11. 8. 2022 01:00 185 163
11. 8. 2022 00:00 186 165
10. 8. 2022 23:00 188 168
10. 8. 2022 22:00 188 168
10. 8. 2022 21:00 188 168

H - water level, Q - discharge
more information

Mělník

Date and time (UTC) H (cm) Q (m³/s)
11. 8. 2022 09:50 268 -
11. 8. 2022 09:00 267 -
11. 8. 2022 08:00 264 -
11. 8. 2022 07:00 262 -
11. 8. 2022 06:00 263 165
11. 8. 2022 05:00 265 -
11. 8. 2022 04:00 269 -
11. 8. 2022 03:00 264 -
11. 8. 2022 02:00 263 -
11. 8. 2022 01:00 266 -
11. 8. 2022 00:00 270 -
10. 8. 2022 23:00 266 -
10. 8. 2022 22:00 266 -
10. 8. 2022 21:00 267 -

H - water level, Q - discharge
more information

Kostelec nad Labem

Date and time (UTC) H (cm) Q (m³/s)
11. 8. 2022 09:50 403 -
11. 8. 2022 09:00 406 14
11. 8. 2022 08:00 404 13
11. 8. 2022 07:00 403 18
11. 8. 2022 06:00 402 13
11. 8. 2022 05:00 401 12
11. 8. 2022 04:00 399 12
11. 8. 2022 03:00 398 12
11. 8. 2022 02:00 401 19
11. 8. 2022 01:00 399 21
11. 8. 2022 00:00 397 11
10. 8. 2022 23:00 398 8
10. 8. 2022 22:00 400 14
10. 8. 2022 21:00 396 17

H - water level, Q - discharge
more information

Přelouč

Date and time (UTC) H (cm) Q (m³/s)
11. 8. 2022 09:50 39 18.3
11. 8. 2022 09:00 32 16
11. 8. 2022 08:00 32 16
11. 8. 2022 07:00 33 16
11. 8. 2022 06:00 37 18
11. 8. 2022 05:00 44 20
11. 8. 2022 04:00 41 19
11. 8. 2022 03:00 32 16
11. 8. 2022 02:00 33 16
11. 8. 2022 01:00 47 22
11. 8. 2022 00:00 49 23
10. 8. 2022 23:00 30 15
10. 8. 2022 22:00 32 16
10. 8. 2022 21:00 34 17

H - water level, Q - discharge
more information

Němčice

Date and time (UTC) H (cm) Q (m³/s)
11. 8. 2022 09:40 58 11.1
11. 8. 2022 09:00 58 11
11. 8. 2022 08:00 58 11
11. 8. 2022 07:00 58 11
11. 8. 2022 06:00 59 11
11. 8. 2022 05:00 59 11
11. 8. 2022 04:00 59 11
11. 8. 2022 03:00 59 11
11. 8. 2022 02:00 59 11
11. 8. 2022 01:00 59 11
11. 8. 2022 00:00 59 11
10. 8. 2022 23:00 59 11
10. 8. 2022 22:00 59 11
10. 8. 2022 21:00 59 11

H - water level, Q - discharge
Source data
Labe Basin Vltava Basin Povodí Moravy ČHMÚ